{"data":{"norad_id":41105,"epoch":"2026-09-19T18:36:28.595808Z","epoch_age_seconds":77054,"freshness":"FRESH","line1":"1 41105U 15074A   26262.77533097 -.00000119  00000+0  00000+0 0  9997","line2":"2 41105   6.9259  69.3210 0001609 194.3390 359.6378  1.00272630 39453","mean_motion":1.0027263,"eccentricity":0.0001609,"inclination_deg":6.9259,"raan_deg":69.321,"arg_perigee_deg":194.339,"mean_anomaly_deg":359.6378,"bstar":0,"rev_number":3945,"period_min":1436.0848020043,"perigee_km":35779.573811422,"apogee_km":35793.142345938,"semimajor_km":42164.49507868,"source":"CELESTRAK","updated_at":"2026-09-20T09:00:35.221868Z"}}